sat.trackr.live / text

‹ back to catalog

STARLINK-35440

NORAD 66345 · 2025-253AC

PAYLOAD ACTIVE UNKNOWN

§ Identity

Operator
Country
US
Launch date
2025-11-06
Launch site
AFETR
Launch vehicle
Mass (kg)
RCS (m²)

Purposes: comms

External: N2YO · Heavens-Above · Gunter

§ Orbital elements

Epoch: 2026-09-20T03:37:57.967104Z

Period
94.27 min
Inclination
42.9992°
Eccentricity
0.0001178
Mean motion
15.27590094 rev/d
Perigee alt
482.2 km
Apogee alt
483.8 km
Semi-major
6,861.2 km
B*
4.8554e-4
RAAN
194.3935°
Arg perigee
279.4846°
Mean anomaly
80.5872°
Rev number
4,998

§ Raw data

STARLINK-354401 66345U 25253AC  26263.15136536  .00013127  00000+0  48554-3 0  99922 66345  42.9992 194.3935 0001178 279.4846  80.5872 15.27590094 49984

JSON: /api/v1/satellites/66345 · /tle

For live sub-satellite position, see the globe view (requires WebGL).

§ Visibility from observer

Set your observer location to see the next 7 days of passes ≥ 10°. The values pass through the URL so the page stays shareable.

No JS? Fill the form by hand. The geolocation button needs JavaScript.